Climatologie pour Saint-Brevin les Pins
Jour • Résumé pour janvier 3, 2018 Système :  Métrique    Anglais   Mixte
« - 1 jour
+ 1 jour »
Jour Semaine Mois Année Personnalisé
  Maximum : Minimum : Moyenne :
Température sous abri : -17.8 °C -11.9 °C -11.3 °C
Point de rosée : -17.8 °C -13.1 °C -12 °C
Humidité : Humidity % 82 % 92 %
Vitesse du vent : 0 km/h 2.6 km/h 30.6 km/h
Rafale : 0 km/h - -
Direction :- - WNW
Pression : 0 hPa 34164.7 hPa -
Précipitations : 175.26 mm    
Historical Graphs
 
 
Tableau de données pour janvier 3, 2018
Heure Tempé Pt rosée Pression Vent Vitesse Rafale Humidité Taux pluie (/hr) Soleil
-17.8 °C -17.8 °C 0 hPa Calm     Humidity % 0 mm SolarRadiationWatts/m^2 W/m2 Conditions
00:00 -10.9 °C -11.1 °C 34246 hPa West 20.8 km/h 67.3 km/h 98 % 7.62 mm 0 W/m2
00:05 -10.9 °C -11.1 °C 34246 hPa WNW 31.1 km/h 67.3 km/h 98 % 7.62 mm 0 W/m2
00:15 -10.9 °C -11.1 °C 34246 hPa West 46.7 km/h 62.1 km/h 98 % 7.62 mm 0 W/m2
00:20 -10.9 °C -11.1 °C 34246 hPa West 25.9 km/h 62.1 km/h 98 % 0 mm 0 W/m2
00:30 -10.9 °C -11.1 °C 34235.8 hPa WSW 28.5 km/h 51.8 km/h 98 % 0 mm 0 W/m2
00:35 -10.8 °C -11 °C 34222.3 hPa West 23.3 km/h 54.4 km/h 98 % 0 mm 0 W/m2
00:40 -10.8 °C -11 °C 34222.3 hPa WSW 69.8 km/h 69.8 km/h 98 % 0 mm 0 W/m2
00:45 -10.8 °C -11 °C 34212.1 hPa West 20.8 km/h 69.8 km/h 98 % 0 mm 0 W/m2
00:50 -10.8 °C -11 °C 34212.1 hPa WNW 25.9 km/h 69.8 km/h 98 % 0 mm 0 W/m2
00:55 -10.8 °C -10.9 °C 34198.6 hPa WNW 20.8 km/h 67.3 km/h 98 % 0 mm 0 W/m2
01:00 -10.7 °C -10.9 °C 34198.6 hPa SW 44.1 km/h 62.1 km/h 98 % 0 mm 0 W/m2
01:05 -10.8 °C -10.9 °C 34198.6 hPa WSW 54.4 km/h 80.3 km/h 98 % 0 mm 0 W/m2
01:10 -10.8 °C -10.9 °C 34198.6 hPa West 57 km/h 80.3 km/h 98 % 0 mm 0 W/m2
01:25 -10.7 °C -10.9 °C 34198.6 hPa West 20.8 km/h 75.2 km/h 98 % 0 mm 0 W/m2
01:30 -10.7 °C -10.9 °C 34188.4 hPa WNW 36.2 km/h 75.2 km/h 98 % 0 mm 0 W/m2
01:35 -10.7 °C -10.8 °C 34198.6 hPa WNW 28.5 km/h 64.7 km/h 98 % 0 mm 0 W/m2
01:40 -10.7 °C -10.8 °C 34188.4 hPa SW 57 km/h 64.7 km/h 98 % 0 mm 0 W/m2
01:45 -10.7 °C -10.8 °C 34188.4 hPa West 18.2 km/h 64.7 km/h 98 % 0 mm 0 W/m2
01:50 -10.7 °C -10.8 °C 34198.6 hPa WSW 59.5 km/h 64.7 km/h 98 % 0 mm 0 W/m2
01:55 -10.7 °C -10.8 °C 34198.6 hPa WNW 54.4 km/h 67.3 km/h 98 % 0 mm 0 W/m2
02:05 -10.7 °C -10.8 °C 34198.6 hPa WSW 31.1 km/h 77.7 km/h 98 % 0 mm 0 W/m2
02:10 -10.7 °C -10.8 °C 34198.6 hPa West 25.9 km/h 75.2 km/h 98 % 0 mm 0 W/m2
02:15 -10.6 °C -10.8 °C 34188.4 hPa WNW 20.8 km/h 75.2 km/h 98 % 0 mm 0 W/m2
02:25 -10.7 °C -10.8 °C 34188.4 hPa West 33.6 km/h 69.8 km/h 98 % 0 mm 0 W/m2
02:30 -10.7 °C -10.8 °C 34188.4 hPa WSW 38.8 km/h 59.5 km/h 98 % 0 mm 0 W/m2
02:35 -10.6 °C -10.8 °C 34188.4 hPa WSW 54.4 km/h 77.7 km/h 98 % 0 mm 0 W/m2
02:45 -10.6 °C -10.8 °C 34188.4 hPa West 36.2 km/h 88 km/h 98 % 7.62 mm 0 W/m2
02:50 -10.7 °C -10.8 °C 34188.4 hPa West 36.2 km/h 88 km/h 98 % 7.62 mm 0 W/m2
02:55 -10.7 °C -10.8 °C 34178.3 hPa West 36.2 km/h 80.3 km/h 98 % 7.62 mm 0 W/m2
03:00 -10.7 °C -10.8 °C 34188.4 hPa WSW 23.3 km/h 72.6 km/h 98 % 12.7 mm 0 W/m2
03:20 -10.7 °C -10.8 °C 34188.4 hPa WSW 31.1 km/h 67.3 km/h 98 % 20.32 mm 0 W/m2
03:25 -10.7 °C -10.9 °C 34178.3 hPa West 36.2 km/h 72.6 km/h 98 % 20.32 mm 0 W/m2
03:30 -10.7 °C -10.9 °C 34188.4 hPa West 46.7 km/h 72.6 km/h 98 % 20.32 mm 0 W/m2
03:35 -10.7 °C -10.9 °C 34178.3 hPa NW 36.2 km/h 67.3 km/h 98 % 20.32 mm 0 W/m2
03:40 -10.8 °C -10.9 °C 34178.3 hPa WNW 25.9 km/h 64.7 km/h 98 % 12.7 mm 0 W/m2
03:45 -10.8 °C -11 °C 34164.7 hPa WSW 33.6 km/h 64.7 km/h 98 % 12.7 mm 0 W/m2
03:50 -10.8 °C -11 °C 34178.3 hPa WNW 41.4 km/h 64.7 km/h 98 % 12.7 mm 0 W/m2
03:55 -10.9 °C -11.1 °C 34178.3 hPa WNW 31.1 km/h 62.1 km/h 98 % 12.7 mm 0 W/m2
04:00 -11 °C -11.2 °C 34178.3 hPa WNW 31.1 km/h 59.5 km/h 98 % 12.7 mm 0 W/m2
04:05 -11 °C -11.3 °C 34178.3 hPa West 31.1 km/h 72.6 km/h 97 % 7.62 mm 0 W/m2
04:10 -11 °C -11.2 °C 34178.3 hPa West 59.5 km/h 72.6 km/h 98 % 7.62 mm 0 W/m2
04:25 -11.1 °C -11.4 °C 34188.4 hPa West 33.6 km/h 67.3 km/h 97 % 0 mm 0 W/m2
04:30 -11.2 °C -11.4 °C 34188.4 hPa West 59.5 km/h 69.8 km/h 97 % 0 mm 0 W/m2
04:35 -11.2 °C -11.4 °C 34188.4 hPa NW 49.2 km/h 69.8 km/h 97 % 0 mm 0 W/m2
04:40 -11.3 °C -11.5 °C 34178.3 hPa NNW 31.1 km/h 67.3 km/h 97 % 0 mm 0 W/m2
04:45 -11.3 °C -11.6 °C 34178.3 hPa WNW 54.4 km/h 64.7 km/h 97 % 0 mm 0 W/m2
04:50 -11.3 °C -11.6 °C 34178.3 hPa West 69.8 km/h 69.8 km/h 97 % 0 mm 0 W/m2
04:55 -11.3 °C -11.7 °C 34178.3 hPa WNW 31.1 km/h 69.8 km/h 96 % 0 mm 0 W/m2
05:00 -11.4 °C -11.7 °C 34178.3 hPa West 23.3 km/h 67.3 km/h 96 % 0 mm 0 W/m2
05:05 -11.4 °C -11.8 °C 34188.4 hPa WNW 28.5 km/h 64.7 km/h 96 % 0 mm 0 W/m2
05:10 -11.4 °C -11.8 °C 34188.4 hPa WNW 36.2 km/h 67.3 km/h 95 % 0 mm 0 W/m2
05:20 -11.3 °C -11.8 °C 34188.4 hPa NNW 31.1 km/h 72.6 km/h 94 % 0 mm 0 W/m2
05:30 -11.3 °C -11.9 °C 34198.6 hPa WNW 31.1 km/h 64.7 km/h 93 % 0 mm 0 W/m2
05:35 -11.3 °C -11.9 °C 34198.6 hPa West 46.7 km/h 62.1 km/h 92 % 0 mm 0 W/m2
05:45 -11.2 °C -12 °C 34198.6 hPa West 41.4 km/h 75.2 km/h 91 % 0 mm 0 W/m2
05:50 -11.2 °C -12 °C 34212.1 hPa WNW 46.7 km/h 75.2 km/h 91 % 0 mm 0 W/m2
05:55 -11.2 °C -12 °C 34212.1 hPa WNW 59.5 km/h 75.2 km/h 90 % 0 mm 0 W/m2
06:00 -11.2 °C -12 °C 34212.1 hPa WSW 36.2 km/h 67.3 km/h 90 % 0 mm 0 W/m2
06:05 -11.2 °C -12 °C 34212.1 hPa West 41.4 km/h 59.5 km/h 90 % 0 mm 0 W/m2
06:10 -11.2 °C -12 °C 34212.1 hPa WNW 18.2 km/h 64.7 km/h 90 % 0 mm 0 W/m2
06:15 -11.2 °C -12.1 °C 34212.1 hPa NW 31.1 km/h 67.3 km/h 89 % 0 mm 0 W/m2
06:25 -11.2 °C -12.1 °C 34212.1 hPa WSW 44.1 km/h 67.3 km/h 89 % 0 mm 0 W/m2
06:30 -11.1 °C -12.1 °C 34222.3 hPa NNW 38.8 km/h 88 km/h 89 % 0 mm 0 W/m2
06:35 -11.1 °C -12.2 °C 34222.3 hPa WNW 31.1 km/h 88 km/h 88 % 0 mm 0 W/m2
06:40 -11.1 °C -12.2 °C 34222.3 hPa West 23.3 km/h 88 km/h 88 % 0 mm 0 W/m2
06:45 -11.1 °C -12.2 °C 34222.3 hPa West 28.5 km/h 80.3 km/h 87 % 0 mm 0 W/m2
06:50 -11 °C -12.2 °C 34235.8 hPa WNW 46.7 km/h 80.3 km/h 87 % 7.62 mm 0 W/m2
06:55 -11 °C -12.2 °C 34246 hPa WNW 51.8 km/h 85.5 km/h 87 % 7.62 mm 0 W/m2
07:00 -11.1 °C -12.2 °C 34256.2 hPa NW 69.8 km/h 95.8 km/h 88 % 12.7 mm 0 W/m2
07:05 -11.2 °C -12.2 °C 34246 hPa West 25.9 km/h 95.8 km/h 89 % 12.7 mm 0 W/m2
07:15 -11.3 °C -12.3 °C 34235.8 hPa West 33.6 km/h 72.6 km/h 89 % 12.7 mm 0 W/m2
07:20 -11.3 °C -12.2 °C 34246 hPa NNW 20.8 km/h 72.6 km/h 90 % 12.7 mm 0 W/m2
07:25 -11.3 °C -12.2 °C 34235.8 hPa WNW 36.2 km/h 67.3 km/h 90 % 12.7 mm 0 W/m2
07:30 -11.3 °C -12.2 °C 34235.8 hPa WNW 57 km/h 67.3 km/h 90 % 12.7 mm 0 W/m2
07:40 -11.3 °C -12.2 °C 34246 hPa NW 20.8 km/h 62.1 km/h 90 % 12.7 mm 0 W/m2
07:45 -11.2 °C -12.1 °C 34269.7 hPa West 51.8 km/h 69.8 km/h 90 % 12.7 mm 0 W/m2
07:50 -11.2 °C -12.1 °C 34269.7 hPa West 38.8 km/h 101.1 km/h 90 % 7.62 mm 0 W/m2
07:55 -11.2 °C -12.2 °C 34279.9 hPa NW 23.3 km/h 101.1 km/h 89 % 12.7 mm 0 W/m2
08:00 -11.2 °C -12.2 °C 34279.9 hPa WNW 28.5 km/h 72.6 km/h 89 % 7.62 mm 0 W/m2
08:05 -11.2 °C -12.3 °C 34279.9 hPa NW 54.4 km/h 75.2 km/h 88 % 7.62 mm 0 W/m2
08:10 -11.2 °C -12.3 °C 34303.6 hPa WNW 46.7 km/h 90.6 km/h 87 % 7.62 mm 0 W/m2
08:15 -11.2 °C -12.4 °C 34293.4 hPa West 38.8 km/h 116.5 km/h 87 % 7.62 mm 0 W/m2
08:25 -11.3 °C -12.7 °C 34293.4 hPa NW 62.1 km/h 82.9 km/h 85 % 7.62 mm 0 W/m2
08:35 -11.3 °C -12.9 °C 34303.6 hPa WNW 18.2 km/h 90.6 km/h 82 % 7.62 mm 0 W/m2
08:40 -11.3 °C -12.9 °C 34303.6 hPa NW 44.1 km/h 85.5 km/h 82 % 7.62 mm 0 W/m2
08:50 -11.3 °C -13 °C 34303.6 hPa WNW 25.9 km/h 80.3 km/h 82 % 7.62 mm 0 W/m2
08:55 -11.3 °C -12.9 °C 34303.6 hPa WNW 57 km/h 72.6 km/h 83 % 0 mm 0 W/m2
09:00 -11.4 °C -12.9 °C 34313.7 hPa North 18.2 km/h 72.6 km/h 83 % 0 mm 0 W/m2
09:05 -11.4 °C -12.9 °C 34303.6 hPa WNW 15.6 km/h 59.5 km/h 83 % 0 mm 0 W/m2
09:15 -11.4 °C -12.9 °C 34313.7 hPa WNW 36.2 km/h 54.4 km/h 84 % 0 mm 0 W/m2
09:20 -11.4 °C -12.8 °C 34313.7 hPa NW 28.5 km/h 62.1 km/h 84 % 0 mm 5 W/m2
09:25 -11.4 °C -12.8 °C 34327.3 hPa West 25.9 km/h 62.1 km/h 84 % 0 mm 5 W/m2
09:30 -11.3 °C -12.8 °C 34337.4 hPa NW 25.9 km/h 64.7 km/h 84 % 0 mm 7 W/m2
09:35 -11.4 °C -12.7 °C 34337.4 hPa WNW 18.2 km/h 72.6 km/h 85 % 0 mm 11 W/m2
09:40 -11.4 °C -12.7 °C 34337.4 hPa NW 23.3 km/h 72.6 km/h 86 % 0 mm 9 W/m2
09:45 -11.4 °C -12.6 °C 34337.4 hPa West 20.8 km/h 85.5 km/h 87 % 0 mm 19 W/m2
09:50 -11.6 °C -12.6 °C 34347.6 hPa WNW 28.5 km/h 85.5 km/h 88 % 0 mm 35 W/m2
09:55 -11.6 °C -12.6 °C 34347.6 hPa WNW 28.5 km/h 72.6 km/h 88 % 0 mm 47 W/m2
10:00 -11.6 °C -12.7 °C 34347.6 hPa North 31.1 km/h 69.8 km/h 88 % 0 mm 60 W/m2
10:05 -11.6 °C -12.6 °C 34361.1 hPa NW 38.8 km/h 77.7 km/h 88 % 0 mm 62 W/m2
10:10 -11.6 °C -12.8 °C 34361.1 hPa NW 41.4 km/h 80.3 km/h 87 % 0 mm 67 W/m2
10:15 -11.6 °C -12.9 °C 34361.1 hPa WNW 25.9 km/h 80.3 km/h 85 % 0 mm 77 W/m2
10:20 -11.6 °C -13 °C 34361.1 hPa WNW 38.8 km/h 72.6 km/h 84 % 0 mm 72 W/m2
10:25 -11.5 °C -13.1 °C 34361.1 hPa NNW 23.3 km/h 72.6 km/h 83 % 0 mm 62 W/m2
10:30 -11.4 °C -13 °C 34361.1 hPa NW 28.5 km/h 72.6 km/h 83 % 0 mm 63 W/m2
10:35 -11.4 °C -12.8 °C 34361.1 hPa NW 15.6 km/h 57 km/h 84 % 0 mm 62 W/m2
10:40 -11.3 °C -12.8 °C 34361.1 hPa NW 41.4 km/h 57 km/h 84 % 0 mm 35 W/m2
10:45 -11.3 °C -12.7 °C 34371.3 hPa WNW 20.8 km/h 57 km/h 84 % 0 mm 42 W/m2
10:50 -11.3 °C -12.6 °C 34371.3 hPa NW 41.4 km/h 57 km/h 85 % 0 mm 53 W/m2
10:55 -11.3 °C -12.6 °C 34384.8 hPa WNW 12.9 km/h 57 km/h 85 % 0 mm 35 W/m2
11:00 -11.3 °C -12.5 °C 34384.8 hPa WNW 49.2 km/h 49.2 km/h 86 % 0 mm 44 W/m2
11:10 -11.4 °C -12.4 °C 34395 hPa WNW 38.8 km/h 59.5 km/h 88 % 7.62 mm 37 W/m2
11:15 -11.4 °C -12.4 °C 34395 hPa NW 38.8 km/h 59.5 km/h 89 % 7.62 mm 33 W/m2
11:25 -11.6 °C -12.3 °C 34395 hPa WNW 44.1 km/h 72.6 km/h 91 % 7.62 mm 53 W/m2
11:30 -11.6 °C -12.3 °C 34395 hPa West 33.6 km/h 72.6 km/h 92 % 12.7 mm 25 W/m2
11:35 -11.6 °C -12.3 °C 34405.1 hPa WNW 62.1 km/h 82.9 km/h 92 % 12.7 mm 28 W/m2
11:40 -11.8 °C -12.6 °C 34418.7 hPa WSW 18.2 km/h 90.6 km/h 91 % 12.7 mm 70 W/m2
12:00 -11.7 °C -12.6 °C 34418.7 hPa WNW 23.3 km/h 93.2 km/h 89 % 20.32 mm 213 W/m2
12:05 -11.7 °C -12.7 °C 34418.7 hPa NW 15.6 km/h 69.8 km/h 89 % 20.32 mm 165 W/m2
12:10 -11.6 °C -12.6 °C 34418.7 hPa WNW 51.8 km/h 67.3 km/h 89 % 12.7 mm 141 W/m2
12:15 -11.6 °C -12.6 °C 34405.1 hPa NW 38.8 km/h 67.3 km/h 89 % 12.7 mm 171 W/m2
12:20 -11.3 °C -12.4 °C 34405.1 hPa WNW 44.1 km/h 62.1 km/h 88 % 12.7 mm 329 W/m2
12:25 -11.3 °C -12.6 °C 34405.1 hPa WNW 20.8 km/h 77.7 km/h 85 % 12.7 mm 114 W/m2
12:30 -11.3 °C -12.7 °C 34405.1 hPa WNW 41.4 km/h 77.7 km/h 84 % 12.7 mm 123 W/m2
12:35 -11.3 °C -12.7 °C 34405.1 hPa NNW 41.4 km/h 69.8 km/h 84 % 12.7 mm 130 W/m2
12:40 -11.3 °C -12.7 °C 34418.7 hPa NW 20.8 km/h 57 km/h 84 % 7.62 mm 135 W/m2
12:45 -11.3 °C -12.7 °C 34428.8 hPa NW 18.2 km/h 57 km/h 84 % 7.62 mm 128 W/m2
12:50 -11.2 °C -12.7 °C 34418.7 hPa WNW 41.4 km/h 57 km/h 84 % 0 mm 93 W/m2
12:55 -11.3 °C -12.6 °C 34418.7 hPa WNW 23.3 km/h 57 km/h 85 % 0 mm 42 W/m2
13:00 -11.3 °C -12.7 °C 34418.7 hPa WNW 23.3 km/h 54.4 km/h 85 % 0 mm 26 W/m2
13:05 -11.3 °C -12.6 °C 34428.8 hPa WNW 28.5 km/h 62.1 km/h 86 % 0 mm 25 W/m2
13:10 -11.3 °C -12.4 °C 34428.8 hPa NW 12.9 km/h 62.1 km/h 87 % 0 mm 42 W/m2
13:15 -11.3 °C -12.4 °C 34428.8 hPa WNW 25.9 km/h 41.4 km/h 88 % 0 mm 79 W/m2
13:20 -11.4 °C -12.4 °C 34428.8 hPa West 28.5 km/h 54.4 km/h 88 % 0 mm 83 W/m2
13:25 -11.4 °C -12.5 °C 34428.8 hPa NW 44.1 km/h 54.4 km/h 88 % 0 mm 91 W/m2
13:30 -11.4 °C -12.4 °C 34428.8 hPa WNW 38.8 km/h 51.8 km/h 88 % 0 mm 72 W/m2
13:40 -11.3 °C -12.4 °C 34428.8 hPa West 15.6 km/h 54.4 km/h 88 % 0 mm 83 W/m2
13:45 -11.3 °C -12.5 °C 34418.7 hPa West 15.6 km/h 54.4 km/h 87 % 0 mm 84 W/m2
13:50 -11.3 °C -12.4 °C 34418.7 hPa West 15.6 km/h 59.5 km/h 87 % 0 mm 72 W/m2
14:00 -11.3 °C -12.4 °C 34418.7 hPa WNW 28.5 km/h 51.8 km/h 87 % 0 mm 28 W/m2
14:05 -11.3 °C -12.4 °C 34428.8 hPa NNW 28.5 km/h 69.8 km/h 87 % 0 mm 28 W/m2
14:15 -11.3 °C -12.6 °C 34428.8 hPa NW 20.8 km/h 80.3 km/h 86 % 0 mm 39 W/m2
14:20 -11.4 °C -12.6 °C 34428.8 hPa West 28.5 km/h 80.3 km/h 87 % 0 mm 37 W/m2
14:25 -11.5 °C -12.6 °C 34428.8 hPa WNW 20.8 km/h 75.2 km/h 88 % 0 mm 33 W/m2
14:40 -11.7 °C -12.6 °C 34428.8 hPa WNW 25.9 km/h 51.8 km/h 90 % 0 mm 44 W/m2
14:45 -11.7 °C -12.6 °C 34428.8 hPa WNW 31.1 km/h 54.4 km/h 90 % 0 mm 40 W/m2
14:50 -11.7 °C -12.4 °C 34428.8 hPa West 25.9 km/h 54.4 km/h 91 % 0 mm 42 W/m2
14:55 -11.7 °C -12.4 °C 34418.7 hPa West 15.6 km/h 44.1 km/h 91 % 0 mm 39 W/m2
15:05 -11.7 °C -12.4 °C 34418.7 hPa WSW 20.8 km/h 44.1 km/h 91 % 0 mm 33 W/m2
15:10 -11.6 °C -12.3 °C 34418.7 hPa WSW 20.8 km/h 44.1 km/h 92 % 0 mm 37 W/m2
15:20 -11.6 °C -12.3 °C 34405.1 hPa WNW 28.5 km/h 57 km/h 92 % 0 mm 33 W/m2
15:25 -11.7 °C -12.4 °C 34418.7 hPa WNW 20.8 km/h 59.5 km/h 92 % 7.62 mm 39 W/m2
15:30 -11.6 °C -12.3 °C 34418.7 hPa NW 23.3 km/h 59.5 km/h 92 % 7.62 mm 42 W/m2
15:35 -11.6 °C -12.3 °C 34418.7 hPa NW 23.3 km/h 51.8 km/h 92 % 7.62 mm 49 W/m2
15:40 -11.7 °C -12.4 °C 34418.7 hPa West 44.1 km/h 54.4 km/h 92 % 12.7 mm 49 W/m2
15:50 -11.7 °C -12.5 °C 34418.7 hPa West 15.6 km/h 54.4 km/h 91 % 12.7 mm 40 W/m2
15:55 -11.7 °C -12.4 °C 34418.7 hPa West 44.1 km/h 54.4 km/h 92 % 12.7 mm 37 W/m2
16:00 -11.7 °C -12.4 °C 34418.7 hPa West 25.9 km/h 59.5 km/h 92 % 12.7 mm 37 W/m2
16:05 -11.7 °C -12.4 °C 34418.7 hPa West 41.4 km/h 59.5 km/h 92 % 12.7 mm 33 W/m2
16:10 -11.7 °C -12.4 °C 34418.7 hPa NW 28.5 km/h 54.4 km/h 92 % 12.7 mm 33 W/m2
16:15 -11.7 °C -12.4 °C 34418.7 hPa WNW 28.5 km/h 57 km/h 92 % 12.7 mm 39 W/m2
16:20 -11.7 °C -12.4 °C 34428.8 hPa WNW 31.1 km/h 57 km/h 92 % 12.7 mm 33 W/m2
16:40 -11.7 °C -12.4 °C 34428.8 hPa WNW 18.2 km/h 46.7 km/h 92 % 12.7 mm 11 W/m2
16:55 -11.8 °C -12.4 °C 34428.8 hPa WNW 12.9 km/h 41.4 km/h 92 % 12.7 mm 7 W/m2
17:05 -11.8 °C -12.4 °C 34428.8 hPa West 12.9 km/h 36.2 km/h 93 % 12.7 mm 0 W/m2
17:10 -11.8 °C -12.4 °C 34428.8 hPa West 10.3 km/h 33.6 km/h 93 % 12.7 mm 0 W/m2
17:15 -11.8 °C -12.4 °C 34418.7 hPa WSW 18.2 km/h 33.6 km/h 93 % 7.62 mm 0 W/m2
17:20 -11.8 °C -12.4 °C 34418.7 hPa WNW 23.3 km/h 33.6 km/h 93 % 7.62 mm 0 W/m2
17:30 -11.8 °C -12.4 °C 34405.1 hPa West 12.9 km/h 38.8 km/h 93 % 7.62 mm 0 W/m2
17:35 -11.8 °C -12.4 °C 34405.1 hPa NW 20.8 km/h 38.8 km/h 93 % 0 mm 0 W/m2
17:40 -11.8 °C -12.3 °C 34405.1 hPa WSW 18.2 km/h 38.8 km/h 94 % 7.62 mm 0 W/m2
17:55 -11.8 °C -12.3 °C 34395 hPa WSW 15.6 km/h 57 km/h 94 % 7.62 mm 0 W/m2
18:15 -11.6 °C -12.2 °C 34395 hPa SW 18.2 km/h 51.8 km/h 94 % 7.62 mm 0 W/m2
18:20 -11.6 °C -12.2 °C 34395 hPa WNW 31.1 km/h 51.8 km/h 94 % 7.62 mm 0 W/m2
18:25 -11.6 °C -12.2 °C 34371.3 hPa WNW 33.6 km/h 49.2 km/h 94 % 7.62 mm 0 W/m2
18:30 -11.6 °C -12.2 °C 34384.8 hPa SW 15.6 km/h 44.1 km/h 94 % 7.62 mm 0 W/m2
18:35 -11.6 °C -12.2 °C 34384.8 hPa West 18.2 km/h 54.4 km/h 94 % 7.62 mm 0 W/m2
18:40 -11.7 °C -12.2 °C 34384.8 hPa WNW 20.8 km/h 57 km/h 94 % 0 mm 0 W/m2
18:45 -11.7 °C -12.2 °C 34384.8 hPa WSW 36.2 km/h 57 km/h 94 % 0 mm 0 W/m2
18:50 -11.7 °C -12.2 °C 34384.8 hPa WSW 38.8 km/h 54.4 km/h 94 % 7.62 mm 0 W/m2
18:55 -11.8 °C -12.3 °C 34384.8 hPa WNW 57 km/h 59.5 km/h 94 % 7.62 mm 0 W/m2
19:00 -11.8 °C -12.3 °C 34384.8 hPa WNW 31.1 km/h 62.1 km/h 94 % 7.62 mm 0 W/m2
19:10 -11.7 °C -12.2 °C 34371.3 hPa NW 12.9 km/h 62.1 km/h 94 % 7.62 mm 0 W/m2
19:25 -11.7 °C -12.2 °C 34371.3 hPa WNW 31.1 km/h 44.1 km/h 94 % 7.62 mm 0 W/m2
19:30 -11.8 °C -12.3 °C 34371.3 hPa West 7.7 km/h 44.1 km/h 94 % 7.62 mm 0 W/m2
19:35 -11.8 °C -12.3 °C 34361.1 hPa West 15.6 km/h 51.8 km/h 94 % 7.62 mm 0 W/m2
19:40 -11.8 °C -12.2 °C 34361.1 hPa West 18.2 km/h 51.8 km/h 95 % 7.62 mm 0 W/m2
19:45 -11.8 °C -12.2 °C 34361.1 hPa NW 38.8 km/h 57 km/h 95 % 12.7 mm 0 W/m2
19:50 -11.8 °C -12.2 °C 34347.6 hPa WNW 23.3 km/h 59.5 km/h 95 % 7.62 mm 0 W/m2
19:55 -11.8 °C -12.2 °C 34347.6 hPa West 18.2 km/h 59.5 km/h 95 % 12.7 mm 0 W/m2
20:00 -11.9 °C -12.3 °C 34361.1 hPa NW 20.8 km/h 51.8 km/h 95 % 12.7 mm 0 W/m2
20:05 -11.9 °C -12.3 °C 34347.6 hPa West 28.5 km/h 49.2 km/h 95 % 12.7 mm 0 W/m2
20:10 -11.9 °C -12.3 °C 34347.6 hPa WNW 36.2 km/h 41.4 km/h 95 % 12.7 mm 0 W/m2
20:20 -11.9 °C -12.3 °C 34337.4 hPa WSW 18.2 km/h 41.4 km/h 95 % 20.32 mm 0 W/m2
20:25 -11.9 °C -12.3 °C 34337.4 hPa West 25.9 km/h 54.4 km/h 95 % 25.4 mm 0 W/m2
20:30 -11.9 °C -12.3 °C 34337.4 hPa West 18.2 km/h 54.4 km/h 96 % 33.02 mm 0 W/m2
20:35 -11.9 °C -12.3 °C 34327.3 hPa West 20.8 km/h 44.1 km/h 96 % 33.02 mm 0 W/m2
20:40 -11.9 °C -12.3 °C 34313.7 hPa West 15.6 km/h 41.4 km/h 96 % 33.02 mm 0 W/m2
20:45 -11.9 °C -12.3 °C 34313.7 hPa SW 12.9 km/h 33.6 km/h 96 % 33.02 mm 0 W/m2
20:50 -11.9 °C -12.3 °C 34303.6 hPa SW 7.7 km/h 31.1 km/h 96 % 38.1 mm 0 W/m2
21:00 -11.9 °C -12.3 °C 34303.6 hPa WSW 12.9 km/h 28.5 km/h 96 % 33.02 mm 0 W/m2
21:05 -11.9 °C -12.3 °C 34303.6 hPa SW 10.3 km/h 28.5 km/h 96 % 38.1 mm 0 W/m2
21:10 -11.9 °C -12.2 °C 34303.6 hPa West 2.6 km/h 23.3 km/h 96 % 33.02 mm 0 W/m2
21:25 -11.8 °C -12.2 °C 34279.9 hPa WSW 2.6 km/h 23.3 km/h 96 % 25.4 mm 0 W/m2
21:30 -11.8 °C -12.2 °C 34279.9 hPa SW 15.6 km/h 25.9 km/h 96 % 25.4 mm 0 W/m2
21:35 -11.8 °C -12.2 °C 34269.7 hPa South 15.6 km/h 25.9 km/h 96 % 25.4 mm 0 W/m2
21:40 -11.8 °C -12.2 °C 34269.7 hPa SSW 15.6 km/h 25.9 km/h 96 % 20.32 mm 0 W/m2
21:50 -11.8 °C -12.1 °C 34256.2 hPa WSW 28.5 km/h 33.6 km/h 97 % 25.4 mm 0 W/m2
21:55 -11.6 °C -11.9 °C 34256.2 hPa WSW 18.2 km/h 44.1 km/h 97 % 33.02 mm 0 W/m2
22:00 -11.4 °C -11.7 °C 34246 hPa SW 18.2 km/h 44.1 km/h 97 % 38.1 mm 0 W/m2
22:05 -11.2 °C -11.4 °C 34246 hPa WNW 28.5 km/h 54.4 km/h 97 % 38.1 mm 0 W/m2
22:10 -11.1 °C -11.3 °C 34246 hPa West 18.2 km/h 54.4 km/h 97 % 38.1 mm 0 W/m2
22:15 -10.9 °C -11.2 °C 34246 hPa WNW 31.1 km/h 57 km/h 97 % 33.02 mm 0 W/m2
22:20 -10.9 °C -11.2 °C 34235.8 hPa SSW 25.9 km/h 57 km/h 97 % 33.02 mm 0 W/m2
22:30 -10.9 °C -11.1 °C 34235.8 hPa West 25.9 km/h 57 km/h 97 % 25.4 mm 0 W/m2
22:40 -10.8 °C -11.1 °C 34235.8 hPa NW 23.3 km/h 67.3 km/h 97 % 25.4 mm 0 W/m2
22:45 -10.8 °C -11.1 °C 34235.8 hPa NW 25.9 km/h 67.3 km/h 97 % 20.32 mm 0 W/m2
22:50 -10.8 °C -11.1 °C 34235.8 hPa West 31.1 km/h 69.8 km/h 97 % 12.7 mm 0 W/m2
22:55 -10.8 °C -11.1 °C 34235.8 hPa WNW 64.7 km/h 69.8 km/h 97 % 12.7 mm 0 W/m2
23:05 -10.8 °C -11.1 °C 34235.8 hPa West 41.4 km/h 64.7 km/h 97 % 7.62 mm 0 W/m2
23:10 -10.8 °C -11.1 °C 34235.8 hPa NW 20.8 km/h 75.2 km/h 97 % 7.62 mm 0 W/m2
23:15 -10.8 °C -11.1 °C 34222.3 hPa West 15.6 km/h 75.2 km/h 97 % 7.62 mm 0 W/m2
23:20 -10.8 °C -11.1 °C 34235.8 hPa WNW 12.9 km/h 67.3 km/h 97 % 7.62 mm 0 W/m2
23:30 -10.8 °C -11.1 °C 34235.8 hPa West 46.7 km/h 64.7 km/h 97 % 7.62 mm 0 W/m2
23:35 -10.8 °C -11.1 °C 34235.8 hPa West 49.2 km/h 62.1 km/h 97 % 7.62 mm 0 W/m2
23:40 -10.8 °C -11.1 °C 34235.8 hPa West 51.8 km/h 62.1 km/h 97 % 7.62 mm 0 W/m2
23:45 -10.8 °C -11.1 °C 34235.8 hPa WSW 41.4 km/h 62.1 km/h 97 % 7.62 mm 0 W/m2
23:50 -10.8 °C -11.1 °C 34235.8 hPa WSW 15.6 km/h 59.5 km/h 97 % 7.62 mm 0 W/m2
23:55 -10.8 °C -11.1 °C 34235.8 hPa NW 12.9 km/h 59.5 km/h 97 % 0 mm 0 W/m2
Avec l'autorisation de Weather Underground - 1.5 mb